Temperature
5 4 4 5 4 5 4 3 3 3 4 4 3 4 5 5 5 5 5 5 6 6 7 7 7 7 7 7 7 7 7 7 7 7 8 8 8 8 9 9 9 9 9 10
4 4 5 5 5 4 4 3 2 3 4 4 3 3 4 4 4 5 5 5 6 6 7 7 7 7 6 6 6 6 6 6 6 7 7 7 8 8 8 8 9 9 9 9
5 5 5 5 5 4 4 3 3 3 3 3 2 3 4 4 5 5 5 5 6 6 6 6 6 6 6 6 6 6 6 6 6 6 7 7 7 7 7 8 8 8 8 9
4 4 5 5 5 4 4 4 4 3 2 1 2 2 3 3 3 4 4 5 6 6 6 6 6 6 6 6 6 6 6 6 6 6 6 6 6 6 7 7 8 8 8 8
4 4 4 5 5 4 3 4 3 2 1 0 1 1 2 2 3 4 4 5 5 6 5 5 5 5 5 5 5 6 6 6 6 6 6 6 6 6 7 7 7 7 7 8
3 4 4 4 4 4 3 2 2 0 -0 1 1 1 2 1 2 3 3 4 5 5 5 5 5 5 5 5 5 5 5 5 6 6 6 6 6 6 6 7 7 7 7 7
3 4 4 4 4 3 2 1 2 1 0 1 1 1 2 2 2 2 3 4 5 5 5 5 5 5 5 5 5 5 5 5 5 5 6 6 6 6 6 6 6 6 7 7
3 4 4 3 4 3 2 2 1 2 1 1 1 1 2 3 3 3 4 4 4 5 5 4 4 4 4 4 4 4 4 5 5 5 5 5 5 5 6 6 6 6 7 7
2 3 3 3 3 3 2 1 1 -0 -2 -2 -0 -1 1 3 3 3 3 4 4 4 4 4 4 4 4 4 4 4 4 4 5 5 5 5 5 5 6 6 6 6 7 7
2 2 2 2 3 3 2 1 -1 -1 -0 0 0 -0 1 2 3 3 2 3 4 4 4 4 4 4 4 4 4 4 4 4 4 4 5 5 5 5 5 5 6 6 7 7
1 1 1 1 2 2 1 1 0 -1 -1 -1 -0 2 2 2 2 2 2 3 3 4 4 4 4 4 4 4 4 4 4 4 4 4 5 5 5 5 5 5 6 6 6 6
1 -0 -0 1 1 2 1 0 -1 -0 -1 -2 -1 2 4 2 2 1 2 3 4 3 3 3 3 4 3 3 3 3 3 3 4 4 4 5 5 5 5 5 6 6 6 6
0 -0 1 2 1 0 0 -0 -0 -1 -1 -2 -2 2 3 2 2 3 3 3 3 3 3 3 3 3 3 3 3 3 3 3 3 4 4 4 4 4 5 5 5 6 6 6
2 -0 1 2 2 0 -1 -1 -1 -1 -1 -1 -0 2 3 3 2 2 3 3 3 3 3 3 3 3 3 2 3 3 3 3 3 3 4 4 4 4 4 4 5 5 6 6
1 0 -1 0 1 1 0 1 -0 -1 -0 -0 1 1 3 3 2 2 2 2 2 3 3 3 3 2 2 2 2 2 2 3 3 3 3 3 4 4 4 4 5 5 6 6
0 0 -0 -0 1 0 1 1 1 1 1 0 1 1 2 2 2 2 2 2 2 2 3 3 2 2 2 2 2 2 2 2 2 2 3 3 3 4 4 4 5 5 5 6
-0 -0 -0 0 0 -0 0 1 1 1 0 0 1 1 2 1 1 1 2 2 2 2 2 2 2 2 1 1 2 2 2 2 2 2 3 3 3 3 4 4 4 5 5 5
-0 -0 -0 -0 -1 0 2 1 1 1 1 0 1 1 1 1 2 2 2 2 2 2 2 2 2 1 1 1 1 2 2 2 2 2 2 2 3 3 3 4 4 4 5 5
0 0 0 -1 -1 -0 1 1 0 -0 -0 0 0 1 1 1 1 1 3 2 2 2 2 1 1 1 1 1 1 1 2 2 2 2 2 2 2 3 3 3 4 4 4 5
-0 -0 0 -0 -1 0 2 1 1 0 -0 0 -0 0 0 -0 -1 0 2 2 2 2 1 1 1 1 1 1 1 1 1 2 2 2 2 2 2 2 3 3 4 4 4 4
-1 -1 -0 -0 -0 1 1 1 1 0 1 2 1 1 1 -1 0 1 2 1 1 1 1 1 1 1 1 1 1 1 1 1 2 2 2 2 2 2 2 3 3 4 4 4
-1 -1 -2 -1 -0 1 1 -0 0 1 2 2 2 2 1 1 1 1 1 1 1 1 0 0 0 0 1 0 0 1 1 1 1 1 2 2 2 2 2 3 3 3 3 4
-1 -0 -1 -0 1 2 1 2 3 3 2 2 2 2 1 1 0 0 0 0 -0 -0 -0 -0 -0 -0 0 0 0 0 1 1 1 1 1 1 2 2 2 2 3 3 3 3
-2 -2 -2 -2 -1 -0 1 2 3 2 2 2 2 1 1 0 0 -0 -0 -1 -1 -1 -1 -1 -1 -1 -0 0 0 0 0 1 1 1 1 1 1 1 2 2 2 2 2 3
-1 -3 -3 -2 -1 -1 1 2 3 2 2 1 1 1 0 -0 -0 -1 -1 -1 -1 -1 -1 -1 -1 -1 -1 -0 -0 -0 0 0 0 0 0 1 1 1 1 1 2 2 2 2
-2 -2 -2 0 0 -0 1 3 2 2 1 1 0 0 -0 -1 -1 -1 -2 -2 -2 -2 -2 -2 -1 -1 -1 -1 -1 -0 -0 -0 -0 -0 -0 0 0 1 1 1 1 2 2 2
Wind_Speed
4 4 1 3 3 4 4 6 11 10 6 6 11 17 19 13 7 7 7 7 7 9 9 7 7 7 7 7 7 7 8 7 7 4 4 4 5 5 5 6 8 9 9 10
4 1 4 3 2 3 4 7 9 9 4 7 10 15 13 8 5 5 6 6 7 9 10 9 8 7 7 7 8 8 8 8 8 6 6 5 5 5 6 6 7 9 9 10
2 3 2 1 2 3 6 6 8 9 10 5 6 9 6 4 4 5 5 5 6 8 9 10 9 9 8 8 8 9 9 10 9 8 6 5 4 4 5 6 6 8 10 10
3 3 2 2 3 2 7 6 7 8 6 5 4 6 7 5 7 6 7 7 7 9 8 9 10 10 9 10 10 10 9 10 9 8 7 7 7 7 8 7 7 9 10 10
3 1 1 3 4 3 6 6 5 4 2 4 2 2 9 5 6 6 7 7 8 8 8 9 11 10 10 10 10 9 10 10 10 9 9 8 9 8 7 6 8 9 9 10
4 3 2 3 3 2 4 4 2 3 3 3 3 2 7 4 6 6 6 7 9 9 9 10 10 10 10 10 9 9 10 11 10 10 10 9 10 9 9 9 9 9 8 8
6 3 1 1 2 4 5 5 6 7 5 5 2 3 10 8 6 6 8 9 9 9 9 11 12 12 12 12 11 10 11 12 11 10 10 10 10 10 11 11 10 10 8 8
4 6 2 1 1 1 2 4 3 3 5 7 5 6 9 7 6 6 7 8 9 10 10 11 12 12 12 13 12 11 12 13 11 9 9 8 8 8 8 10 10 10 9 9
2 6 3 1 1 3 2 2 4 4 2 5 7 8 11 7 6 6 7 8 10 11 12 12 13 12 12 12 13 12 13 12 11 10 8 7 8 8 9 10 10 9 9 8
5 5 5 4 1 1 3 5 4 3 2 6 7 6 6 8 7 7 8 9 11 12 12 13 13 12 11 11 12 12 12 12 11 10 9 7 7 8 9 9 10 10 10 10
4 3 5 3 3 5 3 3 3 3 3 3 6 9 7 8 8 8 10 10 11 13 13 13 13 12 11 11 12 12 12 12 11 10 9 7 7 7 8 9 9 9 9 10
4 3 5 7 4 2 4 5 6 3 4 5 4 10 6 7 7 7 10 11 12 12 12 12 13 12 11 12 12 12 11 11 11 10 9 7 6 6 7 8 8 8 9 10
6 4 4 6 3 1 2 4 5 4 3 5 6 11 4 5 8 9 11 13 13 13 13 12 11 11 11 12 12 11 11 11 11 9 9 7 7 6 7 8 8 8 8 9
6 5 7 9 7 4 5 5 5 6 6 7 13 20 20 17 16 15 14 14 13 13 13 12 11 10 11 11 12 12 12 11 10 9 9 8 8 7 7 8 8 7 6 6
5 6 8 12 12 9 12 13 11 14 13 13 16 19 25 20 16 15 13 13 13 14 13 12 12 11 11 11 11 11 12 11 10 9 8 8 8 7 7 7 6 5 5 5
5 5 4 9 10 11 17 18 17 18 17 20 23 25 23 17 13 12 13 12 13 14 13 13 13 13 13 12 12 12 11 11 9 9 8 8 9 8 7 5 5 5 4 3
6 5 3 7 5 6 12 12 14 10 10 11 17 17 13 12 12 11 12 12 12 13 14 13 13 13 13 12 11 11 11 9 9 9 8 8 9 9 6 5 5 5 4 3
8 6 4 4 3 10 9 5 8 10 13 14 14 13 12 13 12 12 11 10 12 12 13 13 12 13 12 11 11 11 10 9 8 8 8 8 9 8 7 6 5 5 3 2
10 8 5 3 5 11 10 5 6 7 10 10 13 14 13 11 9 9 8 8 11 12 12 12 11 12 11 11 11 11 10 9 9 9 8 8 8 7 7 7 6 4 2 2
7 7 6 5 5 8 8 3 4 3 7 7 8 11 11 5 7 9 9 10 12 12 11 11 11 11 11 11 10 10 10 9 9 9 8 8 7 6 7 7 6 3 2 2
6 6 10 10 9 11 8 4 6 3 8 4 5 7 7 6 9 10 11 11 12 12 12 11 11 10 11 11 9 9 10 10 10 9 8 7 6 6 6 6 5 3 2 2
11 9 9 7 8 12 6 8 8 10 4 3 5 7 7 9 11 12 12 12 12 13 12 11 10 11 11 9 8 9 10 10 9 8 7 7 5 5 5 5 5 4 1 1
11 11 8 12 11 6 7 9 8 4 5 6 6 7 8 10 12 12 12 12 12 12 12 10 9 11 11 9 7 9 11 9 8 7 7 6 5 5 5 4 5 4 2 1
7 5 6 8 11 9 8 8 8 7 8 8 8 9 9 11 13 13 13 12 12 12 11 9 9 10 11 10 8 9 10 8 6 7 7 6 5 6 5 4 4 4 3 2
9 8 6 9 9 8 9 10 10 9 8 9 9 9 9 10 12 12 12 12 11 11 10 9 9 10 11 10 9 9 8 6 5 6 7 5 5 5 5 5 4 5 4 3
8 10 9 11 9 8 8 7 6 7 8 8 8 9 9 8 11 11 11 11 10 10 10 10 10 10 11 10 10 8 6 5 5 6 6 4 4 4 4 5 6 7 6 6
Wind_Direction
25 58 7 275 212 220 241 256 275 271 274 288 273 282 291 300 298 286 291 294 295 293 289 293 296 296 292 292 291 287 286 286 283 267 257 245 239 241 244 237 229 227 223 214
39 329 260 255 241 246 250 272 278 287 290 290 286 285 284 287 279 275 285 295 300 310 319 318 311 304 291 285 287 289 290 285 277 262 251 246 239 241 240 241 235 231 224 216
206 252 299 291 300 299 274 247 270 288 317 318 316 301 293 301 312 308 304 301 308 307 310 316 315 308 302 294 287 288 287 284 281 274 265 261 255 249 242 241 237 238 227 217
263 280 301 301 282 270 286 259 271 295 324 311 17 310 296 311 317 315 316 318 313 310 311 316 316 311 307 297 289 283 280 280 275 269 258 249 245 248 248 241 240 240 228 221
283 307 314 277 277 246 260 297 293 292 248 301 325 249 289 319 309 308 308 312 315 312 311 315 315 309 305 302 296 288 285 282 274 264 252 248 252 252 252 246 242 241 232 222
270 281 240 249 293 267 296 336 17 54 65 315 251 214 286 267 253 281 295 308 315 316 315 313 313 314 311 307 306 301 293 289 278 265 256 246 248 252 251 247 240 238 235 226
328 312 298 298 341 5 29 36 7 357 358 271 270 248 255 254 246 252 280 298 309 312 312 314 317 317 315 313 311 309 304 296 286 271 260 249 243 243 244 242 234 236 234 232
339 303 295 358 170 307 16 106 126 268 279 297 309 255 259 259 269 272 278 290 304 309 312 314 310 309 310 310 312 310 307 301 292 278 265 251 249 246 248 245 239 234 233 231
193 272 316 329 289 149 114 121 155 155 290 285 278 283 296 274 284 288 294 306 308 310 313 313 312 310 310 310 309 307 305 304 302 295 281 259 252 250 254 259 249 238 233 228
162 266 291 314 347 42 154 144 99 113 306 293 291 277 261 285 289 301 301 303 304 309 312 313 313 310 309 308 306 307 307 306 306 301 292 276 261 256 254 256 255 238 228 224
150 203 299 329 206 194 130 136 138 151 184 225 290 279 228 239 267 280 286 293 299 304 306 309 311 310 310 314 312 310 310 312 311 308 300 285 274 269 263 257 255 246 234 224
160 148 265 261 251 188 184 186 157 178 242 218 251 276 257 246 268 275 289 299 301 301 302 305 307 311 315 317 316 316 314 314 311 309 306 292 279 277 275 273 268 254 240 225
148 140 313 327 347 35 229 214 189 173 184 208 229 267 275 291 298 293 298 304 306 307 308 310 311 312 314 315 315 317 317 317 316 313 310 303 293 283 280 280 282 268 248 228
147 177 203 231 240 212 242 235 197 183 221 239 239 263 284 293 296 301 303 304 306 307 308 309 310 310 311 313 313 315 316 316 318 315 311 307 302 286 282 284 281 273 254 233
158 223 235 252 261 256 252 253 226 219 224 239 258 266 278 287 294 298 298 303 308 310 310 309 309 309 311 312 312 313 315 317 318 316 311 308 308 295 289 289 283 276 253 244
180 230 244 265 253 255 265 260 245 240 239 245 261 272 273 283 291 292 295 301 305 307 308 308 309 310 310 309 310 313 313 313 314 313 311 315 317 313 300 291 293 294 274 254
190 200 239 269 287 294 267 244 228 225 220 222 245 257 279 294 294 293 295 296 295 298 303 304 305 305 304 304 305 308 310 311 313 311 314 317 317 315 306 298 302 299 291 273
186 191 225 273 341 257 252 199 207 226 244 233 243 263 278 280 289 288 279 279 288 295 299 301 302 304 303 302 305 307 308 309 311 310 313 315 317 316 317 305 298 300 277 268
193 192 213 221 252 272 283 242 196 214 265 240 241 262 274 286 305 294 275 275 282 288 292 295 296 298 302 304 306 309 310 309 310 307 307 310 312 311 314 312 300 298 300 295
189 194 210 208 228 252 256 213 160 116 282 252 229 258 276 299 306 295 300 299 294 294 295 297 301 303 303 304 308 309 309 308 305 303 299 300 301 303 306 308 309 303 303 293
172 197 217 225 239 261 252 181 129 186 255 264 228 251 261 249 254 280 298 298 294 295 296 298 299 300 298 303 308 304 306 303 300 300 299 299 297 301 305 309 312 311 307 310
184 189 201 198 225 251 199 149 189 227 252 255 255 255 260 267 280 289 294 296 298 299 300 300 300 299 299 302 303 301 299 297 303 305 305 305 307 311 316 318 322 324 305 302
204 197 194 201 223 244 182 205 226 230 251 259 258 266 272 282 288 294 297 297 297 296 298 299 297 299 302 301 296 295 297 300 306 307 307 308 310 312 315 318 321 324 313 271
235 204 205 243 256 255 251 254 259 253 254 264 265 270 276 280 288 293 296 298 299 299 299 301 302 303 303 304 299 292 298 301 304 305 308 313 317 319 320 319 314 310 303 287
216 185 209 246 265 283 266 248 250 257 264 270 273 271 271 277 286 290 295 296 298 299 301 302 300 299 299 304 304 303 304 306 307 305 305 310 313 313 316 317 309 305 292 269
204 194 204 238 232 225 250 246 242 253 264 268 276 283 282 277 282 291 293 295 298 301 304 305 304 302 302 304 302 304 305 300 300 303 305 307 313 314 317 324 329 325 308 309
Height
1494 1498 1499 1498 1498 1498 1499 1500 1499 1490 1483 1482 1476 1468 1459 1456 1455 1453 1451 1449 1447 1445 1443 1441 1439 1437 1434 1432 1430 1428 1426 1425 1423 1421 1420 1420 1419 1420 1421 1422 1424 1425 1427 1428
1498 1499 1496 1495 1495 1496 1497 1498 1496 1486 1481 1480 1475 1467 1457 1454 1453 1451 1449 1447 1445 1442 1439 1437 1435 1433 1431 1428 1426 1424 1422 1420 1418 1417 1415 1415 1414 1414 1415 1416 1417 1419 1420 1421
1497 1496 1494 1494 1494 1495 1494 1495 1491 1488 1482 1479 1478 1466 1457 1452 1451 1450 1448 1446 1444 1441 1438 1436 1433 1430 1428 1425 1422 1420 1418 1415 1413 1411 1410 1409 1408 1407 1408 1408 1409 1411 1413 1414
1497 1495 1494 1493 1493 1493 1493 1488 1487 1486 1489 1488 1485 1481 1460 1455 1452 1449 1446 1444 1442 1440 1437 1434 1431 1428 1424 1421 1418 1415 1412 1410 1408 1406 1404 1402 1400 1399 1399 1400 1402 1404 1406 1407
1495 1494 1494 1493 1492 1491 1490 1486 1487 1487 1489 1493 1488 1489 1466 1458 1453 1448 1445 1443 1440 1438 1436 1432 1429 1426 1422 1418 1414 1411 1407 1404 1401 1400 1398 1396 1394 1393 1393 1394 1395 1397 1398 1400
1495 1494 1493 1492 1490 1490 1489 1488 1488 1492 1495 1494 1486 1490 1471 1460 1453 1448 1444 1441 1438 1436 1434 1430 1427 1423 1419 1414 1410 1406 1402 1397 1395 1392 1390 1389 1387 1387 1387 1387 1388 1389 1390 1392
1497 1493 1492 1491 1491 1490 1492 1496 1498 1496 1502 1493 1484 1484 1468 1451 1447 1446 1443 1440 1437 1435 1432 1428 1424 1419 1414 1409 1405 1401 1396 1391 1388 1385 1383 1382 1381 1381 1380 1380 1381 1381 1382 1383
1504 1498 1493 1492 1492 1494 1495 1498 1507 1507 1506 1493 1486 1480 1458 1446 1443 1442 1440 1438 1435 1432 1429 1425 1421 1417 1411 1406 1401 1396 1391 1386 1382 1379 1376 1375 1375 1375 1374 1374 1374 1374 1375 1377
1506 1500 1494 1492 1492 1494 1497 1501 1502 1511 1515 1513 1491 1478 1458 1442 1440 1438 1437 1435 1432 1429 1426 1422 1417 1413 1408 1402 1397 1392 1386 1382 1377 1373 1371 1369 1369 1368 1367 1367 1367 1368 1369 1370
1502 1504 1496 1494 1492 1493 1495 1499 1508 1511 1512 1504 1488 1479 1464 1446 1440 1437 1435 1432 1429 1426 1422 1418 1414 1409 1404 1398 1393 1387 1382 1377 1372 1368 1366 1364 1363 1362 1361 1361 1360 1361 1362 1364
1500 1505 1500 1496 1494 1494 1497 1500 1502 1509 1510 1508 1497 1465 1446 1443 1438 1436 1433 1430 1427 1424 1419 1414 1410 1405 1400 1395 1389 1383 1378 1372 1368 1364 1361 1358 1357 1357 1356 1355 1354 1354 1355 1357
1499 1505 1505 1497 1491 1490 1492 1495 1500 1505 1507 1508 1501 1464 1437 1436 1434 1433 1431 1427 1424 1420 1416 1411 1406 1401 1395 1390 1385 1379 1374 1369 1364 1360 1357 1355 1353 1352 1350 1349 1348 1349 1349 1350
1497 1504 1502 1491 1494 1494 1494 1493 1493 1497 1501 1502 1497 1459 1435 1434 1432 1431 1428 1424 1420 1416 1411 1406 1402 1397 1392 1387 1382 1376 1371 1366 1361 1357 1353 1351 1349 1347 1345 1344 1342 1343 1343 1344
1491 1498 1497 1490 1484 1488 1491 1490 1490 1493 1493 1488 1474 1450 1434 1433 1430 1427 1424 1420 1416 1412 1407 1402 1397 1393 1388 1383 1379 1373 1368 1363 1359 1355 1351 1348 1346 1343 1341 1340 1338 1337 1337 1338
1488 1492 1491 1485 1481 1482 1480 1478 1481 1482 1476 1474 1456 1448 1433 1429 1428 1424 1420 1416 1412 1408 1403 1399 1394 1389 1384 1380 1375 1370 1365 1361 1357 1353 1349 1345 1342 1340 1338 1336 1335 1334 1334 1335
1485 1486 1486 1481 1477 1477 1472 1464 1466 1466 1464 1459 1452 1442 1429 1427 1425 1421 1417 1413 1409 1404 1400 1395 1391 1386 1381 1376 1371 1367 1362 1358 1354 1351 1347 1343 1340 1337 1335 1333 1332 1330 1330 1331
1481 1484 1484 1477 1474 1473 1463 1452 1452 1452 1449 1449 1444 1432 1425 1424 1421 1417 1413 1409 1406 1401 1397 1392 1388 1383 1378 1373 1368 1363 1359 1354 1351 1347 1344 1341 1338 1335 1332 1330 1329 1328 1327 1327
1475 1479 1479 1477 1478 1469 1443 1440 1440 1442 1438 1436 1432 1427 1424 1421 1416 1413 1410 1406 1402 1398 1394 1389 1384 1379 1374 1369 1365 1360 1356 1352 1348 1344 1341 1339 1336 1333 1330 1328 1326 1325 1325 1325
1466 1471 1474 1476 1475 1459 1442 1436 1437 1439 1434 1426 1426 1422 1419 1416 1413 1407 1405 1403 1399 1395 1391 1386 1381 1376 1370 1366 1361 1357 1353 1349 1345 1342 1339 1336 1333 1331 1328 1326 1325 1324 1323 1323
1462 1465 1468 1469 1469 1457 1434 1431 1430 1434 1433 1420 1419 1418 1415 1414 1414 1405 1401 1398 1394 1390 1386 1382 1377 1372 1367 1363 1359 1354 1350 1346 1342 1339 1337 1334 1331 1329 1327 1325 1323 1323 1322 1322
1461 1463 1461 1460 1458 1442 1428 1427 1430 1437 1426 1415 1414 1413 1412 1411 1408 1402 1398 1394 1390 1385 1381 1377 1373 1368 1364 1359 1355 1351 1347 1343 1340 1337 1334 1331 1329 1327 1325 1323 1322 1321 1321 1320
1450 1455 1456 1455 1452 1437 1421 1424 1426 1419 1412 1412 1410 1409 1407 1404 1401 1397 1393 1389 1384 1380 1376 1372 1368 1363 1359 1356 1352 1347 1344 1341 1337 1334 1331 1329 1327 1325 1323 1321 1320 1320 1319 1319
1438 1434 1435 1434 1424 1414 1413 1412 1410 1410 1409 1408 1406 1405 1404 1400 1396 1392 1388 1383 1379 1375 1371 1368 1363 1358 1354 1351 1348 1344 1340 1337 1334 1331 1328 1326 1324 1323 1321 1320 1319 1318 1318 1317
1429 1426 1428 1426 1414 1410 1409 1408 1407 1407 1405 1404 1403 1401 1399 1395 1391 1387 1383 1378 1374 1370 1366 1362 1358 1354 1350 1347 1344 1340 1336 1333 1330 1328 1325 1323 1321 1320 1319 1318 1318 1317 1316 1315
1417 1420 1421 1417 1409 1407 1403 1402 1402 1401 1400 1399 1397 1396 1393 1390 1386 1382 1378 1373 1369 1365 1361 1358 1354 1350 1346 1343 1339 1336 1333 1330 1327 1325 1323 1321 1320 1318 1317 1316 1316 1315 1315 1315
1406 1409 1411 1404 1399 1400 1397 1397 1397 1396 1395 1393 1392 1389 1387 1385 1381 1377 1373 1369 1365 1361 1357 1353 1349 1345 1342 1338 1335 1333 1330 1327 1325 1322 1321 1319 1317 1316 1315 1314 1313 1313 1313 1313